Regional Weather Roundup
Issued by NWS Newport/Morehead, NC

Home | Current Version | Previous Version | Text Only | Print | Product List | Glossary On
Versions: 1 2 3 4 5 6 7 8 9 10 11 12 13 14 15 16 17 18 19 20 21 22 23 24 25 26 27 28 29 30 31 32 33 34 35 36 37 38 39 40 41 42 43 44 45 46 47 48 49 50
000
ASUS42 KMHX 180625
RWRMHX
WEATHER ROUNDUP FOR EASTERN NORTH CAROLINA
NATIONAL WEATHER SERVICE NEWPORT/MOREHEAD CITY NC
200 AM EDT WED OCT 18 2017

NOTE: "FAIR" INDICATES FEW OR NO CLOUDS BELOW 12,000 FEET
WITH NO SIGNIFICANT WEATHER AND/OR OBSTRUCTIONS TO VISIBILITY

NCZ015>017-031-032-045>047-102-103-180700-
NORTH COAST

CITY           SKY/WX    TMP DP  RH WIND       PRES   REMARKS
EDENTON        CLEAR     47  44  87 CALM      30.32F
ELIZABETH CITY CLEAR     53  48  83 N12       30.31F
KITTY HAWK     CLEAR     57  46  66 CALM      30.29S
MANTEO         CLEAR    N/A N/A N/A NE8       30.30S

$$

NCZ045>047-081-094-103-104-180700-
CENTRAL COAST

CITY           SKY/WX    TMP DP  RH WIND       PRES   REMARKS
FRISCO         CLEAR     62  52  69 NE9G18    30.26F

$$

NCZ095-097-098-100-101-180700-
SOUTHERN COAST

CITY           SKY/WX    TMP DP  RH WIND       PRES   REMARKS
BEAUFORT       PTCLDY    52  49  89 N9        30.28F
CEDAR ISLAND   NOT AVBL
JACKSONVILLE   CLEAR     49  45  86 N7        30.29F
PINEY ISLAND     N/A    N/A N/A N/A N9        30.28F
WILMINGTON     CLEAR     47  44  90 NE5       30.29S


$$

NCZ011>013-027>030-043-044-078>080-089-090>093-098-180700-
COASTAL PLAIN

CITY           SKY/WX    TMP DP  RH WIND       PRES   REMARKS
AHOSKIE        PTCLDY    39  39 100 CALM      30.33F
CLINTON        CLEAR     46  44  93 CALM      30.32S
ELIZABETHTOWN  NOT AVBL
GOLDSBORO      CLEAR     46  41  85 CALM      30.30S
GREENVILLE     CLEAR     41  41 100 CALM      30.32S FOG
HAVELOCK       CLEAR     53  48  83 N10       30.30F
KENANSVILLE    CLEAR     39  39 100 CALM      30.32R
KINSTON        CLEAR     42  40  95 CALM      30.32S
NEW BERN       CLEAR     50  46  86 NE8       30.31F
RICHLANDS      CLEAR     43  42  97 CALM      30.31S
ROCKY MOUNT    CLEAR     41  41 100 CALM      30.33S
WASHINGTON     PTCLDY    46  43  89 N3        30.32S
WHITEVILLE     CLEAR     47  45  93 CALM      30.29S

$$

AMZ130-135-150-152-154-156-158-170-250-252-270-ANZ085-086-088-633-658-670-180700-
MARINE OBSERVATIONS

STATION/POSITION TIME  TEMP    WIND        PRES    WAVE   SWELL
                       AIR SEA DIR/SP/G            HT/PER HT/PER
                 (UTC) (F)     (DEG/KT/KT) (MB)    (FT/S) (FT/S)
CHESAPEAKE LIGHT NOT AVBL
64 E VA BEACH    0550   61 67   20/  8/ 10 1026.5    6/ 8   5/ 8
DUCK             0600   60 68   30/ 12/ 15 1025.7
2 E DUCK         0600      70                N/A     4/ 7   2/12
OREGON INLET     0600   60 65   10/ 10/ 13 1025.4
13E OREGON INLT  0548      71                N/A     5/10   5/10
HATTERAS CG      0600   62 68   30/ 12/ 16 1024.4
DIAMOND BUOY     0550   66 81   20/ 19/ 25 1023.4    7/ 9   3/ 9
CAPE LOOKOUT     0600   59     360/ 15/ 20 1024.4
BEAUFORT LAB     0600   56 70  360/  9/ 13 1025.4
30 SE NEW RVR IN 0508   64      40/ 19/ 25 1024.2
30 SE NEW RVR IN NOT AVBL
27 SE WRIGHTSVLE 0508   64 77   60/ 17/ 23 1024.2
5 SE WRIGHTSVLE  0608   62 75   50/ 17/ 27 1025.0
225 S CAPE HAT   0550   75 79   50/ 19/ 23 1018.7   11/ 8   5/10
41 SE CHARLESTON 0610   69 80   50/ 19/ 25 1022.3

$$




USA.gov is the U.S. government's official web portal to all federal, state and local government web resources and services.